DECAYED

DMSP 5D-2 F13 DEB, 42273 (Decayed)

Orbit data source: Space-Track

DMSP 5D-2 F13 DEB, 42273 was space debris in SSO originally from a launch on Fri, 24 Mar 1995 UTC launched from the Air Force Western Test Range (AFWTR). Debris objects in space refer to the collection of defunct objects orbiting the Earth. Examples of debris include non-operational satellites, rocket bodies, and fragments generated from explosions, collisions, or faulty payload assembly.

Not visible in the next 10 days
Identifier
42273, 1995-015GP
Orbit
Decayed
Country
Flag of USUS
Related business
Manufacturer
Unknown
Mission
Decayed spacecraft
Bus & Motor
Unknown
Mass
Unknown
Launch date (UTC)
1995-03-24 (31 years ago)
Launch vehicle
Unknown
Launch site
Air Force Western Test Range (AFWTR)
Object type
Payload
Rocket body
Debris
Shape & HBR
Unknown shape, 0.1 m
Radar Cross Section
Small (<0.1 m²)

Expand to show TLE details & history
Last TLE update: 10 months ago

TLE from 10 months ago
0 DMSP 5D-2 F13 DEB
1 42273U 95015GP  25028.47716881  .01348969  00000-0  33058-1 0  9997
2 42273  98.6831 107.9995 0012460 310.4734  49.5420 15.37840558503446
Epoch: 2025-01-28T11:27Z
TLE epoch observation values (Epoch: 2025-01-28T11:27:07.385Z)
Latitude
-0°
Longitude
168.23636°
Altitude
450.053 km
Speed
7.645 km/s
True Right ascension
07h 11m 59s
True Declination
0° 00' 00"
Sunlit
Object was in full shadow at epoch
Visualization orbit readout
Latitude
Unknown
Longitude
Unknown
Altitude
Unknown
Speed
Unknown
Apparent Right ascension
Unknown
Apparent Declination
Unknown
Sunlit
N/A
Visualization observer readout
Local Sidereal Time
16:11:59
Azimuth
Unknown
Elevation
Unknown
Doppler factor
Unknown
Orbital elements
Apogee altitude
458.005 km
Perigee altitude
440.991 km
Semi-major axis
6,827.635 km
Eccentricity
0.00125
Inclination
98.6831°
RAAN
107.9995°
Arg. of periapsis
310.4734°
True anomaly
49.65075°
Mean anomaly
49.542°
Eccentric anomaly
49.59636°
Mean motion
3.84714 °/min
Orbital period
93.58 mins
BSTAR
0.033058

Documentation

Showing up to 5 results
|